{"data":{"norad_id":28376,"intl_designator":"2004-026A","name":"AURA","alt_names":[],"object_type":"PAYLOAD","status":"ACTIVE","operator":null,"country":"US","launch_date":"2004-07-15","launch_site_code":"AFWTR","launch_vehicle":null,"mission":null,"orbit_class":"UNKNOWN","rcs_meters":9.4421,"size_class":null,"mass_kg":null,"dimensions":null,"purposes":["earth_obs"],"wikipedia_slug":null,"has_3d_model":false,"image_url":null,"decayed_at":null,"tle_current":{"epoch":"2026-05-25T02:47:34.145952Z","epoch_age_seconds":61037,"freshness":"FRESH","line1":"1 28376U 04026A   26145.11636743  .00000634  00000+0  13820-3 0  9996","line2":"2 28376  98.3406 101.3814 0001545  71.6185 288.5184 14.61287322162842","mean_motion":14.61287322,"eccentricity":0.0001545,"inclination_deg":98.3406,"raan_deg":101.3814,"arg_perigee_deg":71.6185,"mean_anomaly_deg":288.5184,"bstar":0.0001382,"rev_number":16284,"period_min":98.543248704104,"perigee_km":687.92851885185,"apogee_km":690.1122704868,"semimajor_km":7067.1573946693,"source":"CELESTRAK","updated_at":"2026-05-25T13:38:12.742705Z"}}}